CW7847 Weather Reports


time (UTC)temp
C
wind
direction
speed
KPH
gust
KPH
rain 1hr
cm
rain 24hr
cm
rain mn
cm
humidity
%
barometer
mb
20260510104554 15 360 0.0 0.0 0.00 0.00 0.00 88 1016.5
20260510103058 15 360 0.0 0.0 0.00 0.00 0.00 89 1016.2
20260510101553 15 360 0.0 0.0 0.00 0.00 0.00 88 1016.0
20260510100046 15 360 0.0 0.0 0.00 0.00 0.00 88 1015.5
20260510094547 15 360 0.0 0.0 0.00 0.00 0.00 88 1015.3
20260510093012 15 360 0.0 0.0 0.00 0.00 0.00 88 1015.2
20260510091509 15 360 0.0 0.0 0.00 0.00 0.00 88 1015.0
20260510090005 16 360 0.0 0.0 0.00 0.00 0.00 88 1014.6
20260510084504 16 360 0.0 0.0 0.00 0.00 0.00 87 1014.8
20260510083003 16 360 0.0 0.0 0.00 0.00 0.00 87 1014.7
20260510081503 16 360 0.0 0.0 0.00 0.00 0.00 87 1014.7
20260510080057 16 222 0.0 0.0 0.00 0.00 0.00 87 1014.7
20260510074556 16 222 0.0 0.0 0.00 0.00 0.00 87 1014.7
20260510073103 17 222 0.0 0.0 0.00 0.00 0.00 87 1014.6
20260510071553 17 222 0.0 0.0 0.00 0.00 0.00 86 1014.7
20260510070049 17 222 0.0 0.0 0.00 0.00 0.00 86 1014.7
20260510064545 17 222 0.0 0.0 0.00 0.00 0.00 85 1014.6
20260510063043 18 222 0.0 0.0 0.00 0.00 0.00 85 1014.3
20260510061544 18 222 0.0 0.0 0.00 0.00 0.00 85 1014.4
20260510060036 18 222 0.0 0.0 0.00 0.00 0.00 85 1014.5
20260510054542 18 222 0.0 0.0 0.00 0.00 0.00 85 1014.5
20260510053034 18 221 0.0 0.0 0.00 0.00 0.00 85 1014.6
20260510051534 18 221 0.0 0.0 0.00 0.00 0.00 84 1014.5
20260510050026 18 221 0.0 0.0 0.00 0.00 0.00 84 1014.4
20260510044526 19 221 0.0 0.0 0.00 0.00 0.00 83 1014.3
20260510043025 19 221 0.0 0.0 0.00 0.00 0.00 83 1014.2
20260510041524 19 221 0.0 0.0 0.00 0.00 0.00 83 1014.3
20260510040023 19 221 0.0 0.0 0.00 0.00 0.00 84 1014.3
20260510034519 18 207 0.0 0.0 0.00 0.00 0.00 83 1014.5
20260510033018 18 207 0.0 0.0 0.00 0.00 0.00 82 1014.5
20260510031517 18 207 0.0 0.0 0.00 0.00 0.00 82 1014.6
20260510030046 19 207 0.0 0.0 0.00 0.00 0.00 81 1014.4
20260510024605 19 207 0.0 0.0 0.00 0.00 0.00 80 1014.3
20260510023041 20 207 0.0 0.0 0.00 0.00 0.00 80 1014.0
20260510021539 20 207 0.0 0.0 0.00 0.00 0.00 80 1013.8
20260510020038 20 246 0.0 0.0 0.00 0.00 0.00 78 1013.6
20260510014537 21 246 0.0 0.0 0.00 0.00 0.00 77 1013.3
20260510013038 21 246 0.0 0.0 0.00 0.00 0.00 76 1013.0
20260510011534 22 246 0.0 0.0 0.00 0.00 0.00 74 1012.8
20260510010033 22 246 0.0 0.0 0.00 0.00 0.00 72 1012.7
20260510004538 23 246 0.0 0.0 0.00 0.00 0.00 71 1012.3
20260510003003 25 246 0.0 0.0 0.00 0.00 0.00 69 1012.1
20260510001506 25 246 0.0 0.0 0.00 0.00 0.00 70 1011.9
20260510000104 26 246 0.0 0.0 0.00 0.00 0.00 67 1012.0
20260509234559 26 247 0.0 0.0 0.00 0.00 0.00 66 1011.8
20260509233056 26 250 0.0 8.0 0.00 0.00 0.00 67 1012.0
20260509231605 27 242 0.0 0.0 0.00 0.00 0.00 66 1011.9
20260509230052 27 232 0.0 1.6 0.00 0.00 0.00 67 1011.7
20260509224550 26 261 0.0 0.0 0.00 0.00 0.00 67 1011.9
20260509223052 26 192 0.0 0.0 0.00 0.00 0.00 68 1011.7
20260509221548 26 232 0.0 0.0 0.00 0.00 0.00 69 1011.3
20260509220048 26 315 0.0 0.0 0.00 0.00 0.00 67 1011.4
20260509214546 26 112 0.0 0.0 0.00 0.00 0.00 67 1011.4
20260509213046 26 122 0.0 0.0 0.00 0.00 0.00 69 1011.7
20260509211553 26 234 1.6 8.0 0.00 0.00 0.00 68 1011.7
20260509210053 26 250 1.6 12.9 0.00 0.00 0.00 70 1011.8
20260509204542 26 300 0.0 4.8 0.00 0.00 0.00 70 1011.8
20260509203041 26 158 0.0 0.0 0.00 0.00 0.00 71 1012.2
20260509201541 25 123 0.0 0.0 0.00 0.00 0.00 71 1012.3
20260509200047 26 265 0.0 0.0 0.00 0.00 0.00 69 1012.4
20260509194535 26 277 0.0 0.0 0.00 0.00 0.00 69 1012.2
20260509193032 26 259 0.0 0.0 0.00 0.00 0.00 69 1012.5
20260509191531 26 217 0.0 12.9 0.00 0.00 0.00 68 1012.5
20260509190038 26 247 0.0 4.8 0.00 0.00 0.00 70 1012.5
20260509184558 26 48 0.0 6.4 0.00 0.00 0.00 70 1012.5
20260509183057 25 221 0.0 0.0 0.00 0.00 0.00 67 1012.7
20260509181527 25 292 0.0 3.2 0.00 0.00 0.00 72 1012.7
20260509180025 25 274 0.0 0.0 0.00 0.00 0.00 72 1012.9
20260509174551 24 231 0.0 6.4 0.00 0.00 0.00 74 1013.1
20260509173115 24 324 0.0 6.4 0.00 0.00 0.00 74 1013.1
20260509171548 24 243 0.0 11.3 0.00 0.00 0.00 74 1013.1
20260509170054 24 99 0.0 0.0 0.00 0.00 0.00 76 1013.1
20260509164542 23 157 0.0 0.0 0.00 0.00 0.00 77 1013.3
20260509163041 23 355 0.0 0.0 0.00 0.00 0.00 78 1013.4
20260509161540 22 42 0.0 9.7 0.00 0.00 0.00 81 1013.4
20260509160034 22 57 0.0 3.2 0.00 0.00 0.00 80 1013.3
20260509154530 22 68 0.0 6.4 0.00 0.00 0.00 83 1013.2
20260509153033 21 259 3.2 6.4 0.00 0.00 0.00 84 1013.0
20260509151521 21 306 1.6 11.3 0.00 0.00 0.00 85 1012.9
20260509150018 20 240 0.0 8.0 0.00 0.00 0.00 88 1012.8
20260509144515 19 255 1.6 8.0 0.00 0.00 0.00 89 1012.8
20260509143013 18 203 1.6 11.3 0.00 0.00 0.00 90 1012.8
20260509141505 17 287 1.6 6.4 0.00 0.00 0.00 90 1012.9
20260509140003 17 250 3.2 8.0 0.00 0.00 0.00 90 1013.0
20260509134559 16 242 1.6 8.0 0.00 0.00 0.00 90 1012.9
20260509133104 16 265 3.2 11.3 0.00 0.00 0.00 90 1012.9
20260509131530 16 252 0.0 11.3 0.00 0.00 0.00 90 1013.1
20260509130051 15 253 4.8 12.9 0.00 0.00 0.00 89 1013.3
20260509124551 15 238 0.0 6.4 0.00 0.00 0.00 89 1013.2
20260509123117 15 225 0.0 4.8 0.00 0.00 0.00 88 1013.3
20260509121516 14 180 0.0 0.0 0.00 0.00 0.00 89 1013.0
20260509120021 13 360 0.0 0.0 0.00 0.00 0.00 88 1012.7
20260509114613 12 360 0.0 0.0 0.00 0.00 0.00 88 1012.9
20260509113046 12 360 0.0 0.0 0.00 0.00 0.00 88 1012.8
20260509111541 12 360 0.0 0.0 0.00 0.00 0.00 88 1012.2
20260509110046 12 360 0.0 0.0 0.00 0.00 0.00 87 1012.2